Tracking 31027 objects as of 19-Jul-2025
HD Live streaming from Space Station
objects crossing your sky now

NOAA 16 DEB

Track NOAA 16 DEB now!
10-day predictions


NORAD ID: 41276
Int'l Code: 2000-055GC
Perigee: 816.4 km
Apogee: 836.2 km
Inclination: 98.7 °
Period: 101.3 minutes
Semi major axis: 7197 km
RCS: Unknown
Launch date: September 21, 2000
Source: United States (US)
Launch site: AIR FORCE WESTERN TEST RANGE (AFWTR)

Note: This is SATELLITE DEBRIS
Your satellite tracking list
STARLINK-3957
Track 1 satellite(s)




NASA's NSSDC Master Catalog

Two Line Element Set (TLE):
1 41276U 00055GC  25199.38182243  .00001943  00000-0  90095-3 0  9990
2 41276  98.6699 249.6522 0013787  48.8704 311.3662 14.21832214493541
Source of the keplerian elements: AFSPC